Flag for U.S.A. Weather past 2 weeks in Brattleboro, Vermont, U.S.A.

Now
0 °F

Clear.


Feels Like: -10 °F
Forecast: 5 / 24 °F
Wind: 5 mph from South

Location: Keene / Dillant

Current Time: Feb 1, 2015 at 2:21:04 AM

Latest Report: Feb 1, 2015 at 1:55 AM


Visibility: 10 mi

Pressure: 30.03 "Hg

Humidity: 71%

Dew point: -8 °F

Location of BrattleboroLocation

Historic Weather in Brattleboro — Graph

°F

Brattleboro temperature yesterday

Maximum temperature yesterday: 16 °F (at 1:15 PM)
Minimum temperature yesterday: 0 °F (at 10:35 PM)
Average temperature yesterday: 9 °F

Past Weeks' High & Low Weather Summary

 TemperatureHumidityPressure
High37 °F (Jan 18, 7:35 PM)100% (Jan 18, 1:35 PM)30.37 "Hg (Jan 18, 1:35 PM)
Low-9 °F (Jan 29, 6:15 AM)25% (Jan 29, 3:35 PM)29.23 "Hg (Jan 24, 4:35 PM)
Average20 °F68%29.94 "Hg
* Reported Jan 17 1:15 AM — Feb 1 1:15 AM, Brattleboro, Weather by CustomWeather, © 2014

Note: Actual official high and low records may vary slightly from our data, if they occured in-between our weather recording intervals... More about our weather records

Advertising

Brattleboro weather history for previous 24 hours

 ConditionsComfort  
Time TempWeatherWind HumidityBarometerVisibility
1:15 AM
Feb 1
1 °FClear.3 mph60%30.04 "Hg10 mi
12:55 AM3 °FClear.3 mph66%30.04 "Hg10 mi
12:35 AM1 °FClear.No wind65%30.04 "Hg10 mi
12:15 AM1 °FClear.No wind65%30.05 "Hg10 mi
11:55 PM
Jan 31
3 °FClear.No wind60%30.05 "Hg10 mi
11:35 PM5 °FClear.No wind66%30.05 "Hg10 mi
11:15 PM1 °FClear.No wind65%30.04 "Hg10 mi
10:55 PM1 °FClear.No wind71%30.04 "Hg10 mi
10:35 PM0 °FClear.3 mph71%30.05 "Hg10 mi
10:15 PM1 °FClear.No wind65%30.04 "Hg10 mi
9:55 PM1 °FClear.No wind65%30.04 "Hg10 mi
9:35 PM1 °FClear.No wind65%30.05 "Hg10 mi
9:15 PM1 °FClear.No wind65%30.05 "Hg10 mi
8:55 PM3 °FClear.No wind66%30.05 "Hg10 mi
8:35 PM5 °FClear.No wind51%30.05 "Hg10 mi
8:15 PM9 °FClear.3 mph51%30.04 "Hg10 mi
7:55 PM9 °FClear.No wind51%30.05 "Hg10 mi
7:35 PM9 °FClear.No wind51%30.05 "Hg10 mi
7:15 PM10 °FClear.No wind44%30.04 "Hg10 mi
6:55 PM10 °FClear.6 mph44%30.03 "Hg10 mi
6:35 PM12 °FClear.7 mph44%30.04 "Hg10 mi
6:15 PM12 °FClear.6 mph44%30.03 "Hg10 mi
5:55 PM12 °FClear.8 mph44%30.03 "Hg10 mi
5:35 PM12 °FClear.6 mph44%30.03 "Hg10 mi
5:15 PM12 °FClear.7 mph40%30.02 "Hg10 mi
4:55 PM12 °FSunny.9 mph40%30.00 "Hg10 mi
4:35 PM16 °FSunny.12 mph34%30.00 "Hg10 mi
4:15 PM16 °FSunny.10 mph34%30.00 "Hg10 mi
3:35 PM16 °FSunny.20 mph37%29.99 "Hg9 mi
3:15 PM16 °FSunny.17 mph34%29.98 "Hg10 mi
2:55 PM16 °FSunny.13 mph37%29.97 "Hg10 mi
2:35 PM16 °FSunny.21 mph34%29.97 "Hg10 mi
2:15 PM16 °FSunny.16 mph34%29.96 "Hg10 mi
1:55 PM16 °FSunny.17 mph34%29.96 "Hg10 mi
1:35 PM16 °FSunny.18 mph31%29.95 "Hg10 mi
1:15 PM16 °FSunny.16 mph31%29.95 "Hg10 mi
12:55 PM14 °FSunny.14 mph34%29.95 "Hg10 mi
12:35 PM14 °FSunny.15 mph34%29.95 "Hg10 mi
12:15 PM12 °FSunny.13 mph37%29.95 "Hg10 mi
11:55 AM12 °FSunny.14 mph40%29.96 "Hg10 mi
11:35 AM12 °FSunny.16 mph40%29.96 "Hg10 mi
11:15 AM10 °FSunny.20 mph44%29.96 "Hg10 mi
10:55 AM10 °FSunny.10 mph44%29.97 "Hg10 mi
10:35 AM9 °FSunny.20 mph47%29.97 "Hg10 mi
10:15 AM9 °FIce fog.23 mph47%29.97 "Hg1 mi
9:55 AM7 °FIce fog.18 mph51%29.97 "Hg1 mi
9:35 AM7 °FSunny.22 mph51%29.96 "Hg10 mi
9:15 AM7 °FSunny.22 mph47%29.96 "Hg8 mi
8:55 AM5 °FSunny.21 mph55%29.96 "Hg10 mi
8:35 AM3 °FSunny.14 mph55%29.96 "Hg10 mi
8:15 AM3 °FSunny.12 mph60%29.96 "Hg10 mi
7:55 AM3 °FSunny.14 mph60%29.97 "Hg10 mi
7:35 AM3 °FSunny.12 mph60%29.97 "Hg10 mi
7:15 AM5 °FSunny.12 mph55%29.96 "Hg10 mi
6:55 AM5 °FClear.16 mph55%29.95 "Hg10 mi
6:35 AM5 °FClear.16 mph55%29.95 "Hg10 mi
6:15 AM5 °FPassing clouds.16 mph60%29.95 "Hg10 mi
5:55 AM7 °FPassing clouds.17 mph56%29.94 "Hg10 mi
5:35 AM7 °FPassing clouds.16 mph56%29.93 "Hg10 mi
5:15 AM7 °FClear.17 mph61%29.92 "Hg10 mi
4:55 AM7 °FClear.13 mph56%29.91 "Hg10 mi
4:35 AM7 °FClear.13 mph61%29.90 "Hg10 mi
4:15 AM7 °FClear.10 mph61%29.89 "Hg10 mi
3:55 AM9 °FClear.8 mph61%29.89 "Hg10 mi
3:35 AM9 °FClear.12 mph61%29.88 "Hg10 mi
3:15 AM9 °FClear.15 mph61%29.88 "Hg10 mi
2:55 AM9 °FClear.16 mph61%29.88 "Hg10 mi
2:35 AM9 °FClear.16 mph66%29.88 "Hg10 mi
2:15 AM10 °FClear.18 mph61%29.88 "Hg10 mi
Weather by CustomWeather, © 2014

See weather overviewHow to use our weather pages